Regional Weather Roundup
Issued by NWS

Home | Current Version | Previous Version | Graphics & Text | Print | Product List | Glossary On
Versions: 1 2 3 4 5 6 7 8 9 10 11 12 13 14 15 16 17 18 19 20 21 22 23 24 25 26 27 28 29 30 31 32 33 34 35 36 37 38 39 40 41 42 43 44 45 46 47 48 49 50
000
ASUS43 KIND 200209
RWRIN

WEATHER ROUNDUP FOR INDIANA
NATIONAL WEATHER SERVICE INDIANAPOLIS IN
1000 PM EDT SUN OCT 19 2014

NOTE: "FAIR" INDICATES FEW OR NO CLOUDS BELOW 12,000 FEET WITH NO
SIGNIFICANT WEATHER AND/OR OBSTRUCTIONS TO VISIBILITY.

* - STATION DOES NOT REPORT WEATHER SUCH AS PRECIPITATION OR FOG.

+ - STATION NOT QUALITY CONTROLLED BY THE NATIONAL WEATHER SERVICE.
    USE DATA WITH CAUTION...ESPECIALLY DEWPOINT AND RELATIVE
    HUMIDITY OBSERVATIONS.

INZ001>003-010>013-019-020-200300-
NORTHWEST INDIANA

CITY           SKY/WX    TMP DP  RH WIND       PRES   REMARKS
GARY /AIRPORT/ MOCLDY    54  43  66 S9        29.97F
KNOX *+        CLOUDY    49  40  71 SW9       29.99F
LA PORTE +     CLOUDY    51  43  73 SW9       29.99S
MICHIGAN CITY+ CLOUDY    50  39  66 S9        29.98F
MONTICELLO +   CLOUDY    47  42  81 SW6       30.02F
RENSSELAER +   CLOUDY    50  45  81 S9        30.01F
VALPARAISO     CLOUDY    50  41  71 SW10      29.99F

$$

LMZ046-743>745-200300-
SOUTHERN LAKE MICHIGAN

STATION/POSITION TIME  TEMP WIND        PRES
                       AIR  DIR/SP/G
                 (UTC) (F)  (DEG/KT/KT) (MB)
MICHIGAN CITY    0200   52  170/ 12/ 14   N/A

$$

INZ004-005-014>016-021>024-200300-
NORTH CENTRAL INDIANA

CITY           SKY/WX    TMP DP  RH WIND       PRES   REMARKS
GOSHEN         CLOUDY    50  39  66 S12       29.99F
LOGANSPORT +   CLOUDY    46  39  76 SW10      30.03F
PERU/GRISSOM   MOCLDY    47  44  90 SW7       30.02F
ROCHESTER +    MOCLDY    52  41  66 SW9G16    30.02S
SOUTH BEND     MOCLDY    50  40  68 S10       29.99F
WARSAW +       MOCLDY    48  37  66 S6        30.01F

$$

INZ006>009-017-018-025>027-200300-
NORTHEAST INDIANA

CITY           SKY/WX    TMP DP  RH WIND       PRES   REMARKS
ANGOLA *+      CLEAR     46  37  71 SW5       29.99F
AUBURN +       CLOUDY    46  37  71 SW3       30.02F
FORT WAYNE     CLOUDY    47  39  74 S8        30.03F
HUNTINGTON +   MOCLDY    47  39  73 CALM      30.02F

$$

INZ028-029-035-036-043>045-051>053-200300-
WEST CENTRAL INDIANA

CITY           SKY/WX    TMP DP  RH WIND       PRES   REMARKS
GREENCASTLE +  MOCLDY    43  41  93 CALM      30.07F
LAFAYETTE      MOCLDY    47  41  80 SW5       30.04F
TERRE HAUTE    MOCLDY    45  41  86 CALM      30.07F

$$

INZ030>032-037>040-046>048-054>057-064-065-200300-
CENTRAL INDIANA

CITY           SKY/WX    TMP DP  RH WIND       PRES   REMARKS
CP ATTERBURY + CLEAR     43  39  87 CALM      30.08F
COLUMBUS       CLEAR     45  41  87 CALM      30.09F
FRANKFORT +    MOCLDY    47  41  78 S5        30.06F
INDIANAPOLIS   MOCLDY    46  40  79 SW8       30.06F
-EAGLE CREEK   PTCLDY    47  40  76 CALM      30.06F
KOKOMO *+      MOCLDY    48  39  71 S9        30.03F
MARION +       PTCLDY    46  38  76 S7        30.04F
MT COMFORT *+  PTCLDY    46  36  66 S6        30.07S
SHELBYVILLE    CLEAR     47  40  76 S8        30.07F
ZIONSVILLE +   PTCLDY    45  38  77 SW6       30.06S

$$

INZ033-034-041-042-049-050-058-059-200300-
EAST CENTRAL INDIANA

CITY           SKY/WX    TMP DP  RH WIND       PRES   REMARKS
MUNCIE         MOCLDY    48  39  71 S6        30.05F

$$

INZ060-061-067>069-081>083-085>088-200300-
SOUTHWEST INDIANA

CITY           SKY/WX    TMP DP  RH WIND       PRES   REMARKS
EVANSVILLE     PTCLDY    50  44  80 CALM      30.10F
HUNTINGBURG *+ PTCLDY    46  41  81 CALM      30.10F
WASHINGTON +   PTCLDY    46  44  95 CALM      30.08F

$$

INZ062-063-066-070>080-084-089>092-200300-
SOUTH CENTRAL AND SOUTHEAST INDIANA

CITY           SKY/WX    TMP DP  RH WIND       PRES   REMARKS
BLOOMINGTON    PTCLDY    43  41  93 CALM      30.08F
SEYMOUR +      PTCLDY    43  41  93 SW5       30.09F

$$




USA.gov is the U.S. government's official web portal to all federal, state and local government web resources and services.